Home   Weather   Wellington   Past weeks

Flag for New Zealand Past Weather in Wellington, New Zealand — Yesterday and Last 2 Weeks

Now
64 °F

Partly sunny.


Feels Like: 64 °F
Forecast: 58 / 68 °F
Wind: 28 mph from North

Location: Wellington Airport

Current Time: Jan 25, 2017 at 10:30:38 am

Latest Report: Jan 25, 2017 at 9:30 am


Visibility: N/A

Pressure: 29.65 "Hg

Humidity: 78%

Dew Point: 57 °F

Location of WellingtonLocation

Past Weather in Wellington — Graph

°F

Wellington Temperature Yesterday

Maximum temperature yesterday: 68 °F (at 11:30 am)
Minimum temperature yesterday: 57 °F (at 3:00 am)
Average temperature yesterday: 63 °F

High & Low Weather Summary for the Past Weeks

 TemperatureHumidityPressure
High73 °F (Jan 17, 12:00 pm)100% (Jan 19, 8:30 am)29.98 "Hg (Jan 19, 8:30 am)
Low52 °F (Jan 20, 1:00 am)38% (Jan 16, 1:00 pm)28.97 "Hg (Jan 22, 4:30 pm)
Average63 °F74%29.62 "Hg
* Reported Jan 10 9:00 am — Jan 25 9:00 am, Wellington, Weather by CustomWeather, © 2017

Note: Actual official high and low records may vary slightly from our data, if they occured in-between our weather recording intervals... More about our weather records

Advertising

Wellington Weather History for the Previous 24 Hours

Scroll right to see more
 ConditionsComfort  
Time TempWeatherWind HumidityBarometerVisibility
9:00 am
Wed, Jan 25
63 °FPartly sunny.31 mph77%29.65 "HgN/A
8:30 am63 °FOvercast.32 mph77%29.65 "HgN/A
8:00 am63 °FOvercast.30 mph77%29.65 "HgN/A
7:30 am63 °FOvercast.31 mph77%29.65 "HgN/A
7:00 am63 °FPartly sunny.35 mph77%29.68 "HgN/A
6:30 am61 °FPartly sunny.33 mph83%29.71 "HgN/A
6:00 am61 °FMostly cloudy.28 mph83%29.71 "HgN/A
5:30 am61 °FPassing clouds.32 mph83%29.71 "HgN/A
5:00 am61 °FPassing clouds.31 mph83%29.71 "HgN/A
4:30 am61 °FPassing clouds.29 mph83%29.74 "HgN/A
4:00 am61 °FPassing clouds.31 mph77%29.77 "HgN/A
3:30 am63 °FPassing clouds.33 mph73%29.74 "HgN/A
3:00 am63 °FMild.28 mph73%29.77 "HgN/A
2:30 am63 °FPassing clouds.30 mph77%29.77 "HgN/A
2:00 am63 °FPassing clouds.26 mph77%29.80 "HgN/A
1:30 am61 °FOvercast.28 mph88%29.80 "HgN/A
1:00 am61 °FOvercast.28 mph88%29.83 "HgN/A
12:30 am61 °FOvercast.28 mph88%29.83 "HgN/A
12:00 am61 °FOvercast.29 mph88%29.83 "HgN/A
11:30 pm
Tue, Jan 24
61 °FOvercast.26 mph83%29.86 "HgN/A
11:00 pm61 °FOvercast.23 mph83%29.89 "HgN/A
10:30 pm61 °FOvercast.24 mph83%29.89 "HgN/A
10:00 pm61 °FPassing clouds.24 mph83%29.89 "HgN/A
9:30 pm61 °FPassing clouds.26 mph83%29.89 "HgN/A
9:00 pm61 °FPassing clouds.24 mph77%29.92 "HgN/A
8:30 pm61 °FCool.28 mph77%29.89 "HgN/A
8:00 pm63 °FMild.28 mph77%29.89 "HgN/A
7:30 pm63 °FMild.21 mph73%29.89 "HgN/A
7:00 pm63 °FMild.30 mph73%29.89 "HgN/A
6:30 pm64 °FMild.26 mph73%29.89 "HgN/A
6:00 pm64 °FMild.25 mph68%29.89 "HgN/A
5:30 pm66 °FMild.26 mph64%29.89 "HgN/A
5:00 pm66 °FMild.30 mph60%29.92 "HgN/A
4:30 pm68 °FMild.28 mph60%29.92 "HgN/A
4:00 pm68 °FMild.30 mph64%29.92 "HgN/A
3:30 pm68 °FMild.28 mph60%29.95 "HgN/A
3:00 pm68 °FMild.28 mph64%29.95 "HgN/A
2:30 pm68 °FMild.25 mph64%29.95 "HgN/A
2:00 pm68 °FMild.24 mph64%29.95 "HgN/A
1:30 pm68 °FMild.22 mph64%29.95 "HgN/A
1:00 pm68 °FMild.23 mph69%29.98 "HgN/A
12:30 pm68 °FMild.21 mph69%29.98 "HgN/A
12:00 pm68 °FMild.21 mph64%29.98 "HgN/A
11:30 am68 °FMild.23 mph69%29.98 "HgN/A
11:00 am66 °FMild.21 mph68%29.98 "HgN/A
10:30 am64 °FMild.22 mph73%29.98 "HgN/A
10:00 am64 °FMild.23 mph73%29.98 "HgN/A
Weather by CustomWeather, © 2017

See weather overviewHow to use our weather pages